PBO Station Position Time Series. Reference Frame : NAM14
Format Version,1.1.0
4-character ID,DWH1
Station name,DWH1
Begin Date, 2004-08-27
End Date, 2007-07-19
Release Date, 2019-08-30
Reference position, 47.7741036872 North Latitude, -122.0801566365 East Longitude, 109.05384 meters elevation,
Date, North (mm), East (mm), Vertical (mm), North Std. Deviation (mm), East Std. Deviation (mm),              Vertical Std. Deviation (mm), Quality,
2004-08-27,0.00, 0.00, 0.00, 2.64, 2.04, 9.68, repro,
2004-08-28,-1.19, -0.39, -0.03, 2.83, 2.16, 10.34, repro,
2004-08-29,-1.02, -1.33, -2.40, 2.67, 2.10, 9.94, repro,
2004-08-30,-1.68, -1.36, 3.30, 2.75, 2.12, 10.35, repro,
2004-08-31,-0.68, -0.91, -4.66, 2.67, 2.07, 9.70, repro,
2004-09-01,-3.43, -1.75, 1.21, 2.73, 2.12, 9.97, repro,
2004-09-02,-1.18, 1.62, 6.69, 2.76, 2.12, 10.05, repro,
2004-09-03,-2.49, -0.80, 4.77, 2.71, 2.05, 9.77, repro,
2004-09-04,-4.26, 0.92, 11.74, 2.66, 2.04, 9.56, repro,
2004-09-05,0.85, -2.45, -7.59, 2.68, 2.07, 9.80, repro,
2004-09-06,-0.09, -3.31, -11.37, 2.63, 2.03, 9.55, repro,
2004-09-07,-0.84, -0.41, -6.70, 2.63, 2.06, 9.65, repro,
2004-09-08,0.09, 0.24, 2.14, 2.72, 2.13, 10.00, repro,
2004-09-09,1.05, 0.19, 5.78, 2.74, 2.08, 9.84, repro,
2004-09-10,-1.79, -0.46, -0.03, 2.64, 2.07, 9.79, repro,
2004-09-11,-1.54, 1.22, -0.35, 2.65, 2.08, 9.74, repro,
2004-09-12,-1.60, -1.18, 9.34, 2.66, 2.12, 9.97, repro,
2004-09-13,-0.53, -1.36, 8.11, 2.78, 2.09, 9.93, repro,
2004-09-14,-1.11, 0.41, 24.06, 2.72, 2.13, 10.00, repro,
2004-09-15,-2.10, -0.16, 3.35, 2.71, 2.10, 9.80, repro,
2004-09-16,2.95, -0.10, 3.90, 2.62, 2.05, 9.56, repro,
2004-09-17,2.60, -3.47, -13.47, 2.79, 2.16, 10.12, repro,
2004-09-18,-0.25, -2.34, -0.61, 2.85, 2.27, 10.89, repro,
2004-09-19,3.30, -0.29, 11.90, 2.64, 2.06, 9.65, repro,
2004-09-20,1.93, -1.82, -1.19, 2.67, 2.05, 9.72, repro,
2004-09-21,1.52, -1.84, -7.05, 2.71, 2.07, 9.79, repro,
2004-09-22,1.79, -3.34, -7.63, 2.67, 2.08, 9.79, repro,
2004-09-23,1.49, -0.19, 6.36, 2.84, 2.16, 10.25, repro,
2004-09-24,3.38, -3.15, -6.31, 2.80, 2.16, 10.04, repro,
2004-09-25,4.37, -3.13, -17.44, 2.65, 2.05, 9.72, repro,
2004-09-26,0.70, -1.38, -4.53, 2.65, 2.06, 9.80, repro,
2004-09-27,2.94, -1.83, -3.45, 2.75, 2.12, 10.13, repro,
2004-09-28,2.45, -3.59, -3.41, 2.56, 1.99, 9.41, repro,
2004-09-29,2.02, -0.76, -1.33, 2.59, 2.03, 9.73, repro,
2004-09-30,6.83, -2.85, -5.99, 2.56, 2.01, 9.59, repro,
2004-10-01,3.46, -1.58, -6.26, 2.69, 2.05, 9.74, repro,
2004-10-02,3.13, -0.80, -0.95, 2.60, 2.02, 9.56, repro,
2004-10-03,2.79, -0.64, -4.42, 2.68, 2.11, 10.16, repro,
2004-10-04,3.45, 0.25, 2.49, 2.59, 2.05, 9.82, repro,
2004-10-05,3.23, -2.66, -6.61, 2.63, 2.05, 9.65, repro,
2004-10-06,4.92, 2.78, 16.50, 2.60, 2.03, 9.65, repro,
2004-10-07,4.73, -2.13, -1.45, 2.57, 1.99, 9.39, repro,
2004-10-08,2.88, -2.72, 0.86, 2.70, 2.11, 10.05, repro,
2004-10-09,0.77, -2.94, 5.25, 2.74, 2.15, 10.12, repro,
2004-10-10,4.53, -3.25, 0.85, 2.77, 2.14, 10.12, repro,
2004-10-11,4.89, -1.66, 4.71, 2.74, 2.10, 10.09, repro,
2004-10-12,3.79, -0.52, 3.36, 2.69, 2.09, 9.95, repro,
2004-10-13,4.18, -2.37, -5.43, 2.72, 2.11, 9.87, repro,
2004-10-14,5.07, -4.86, -12.99, 2.68, 2.10, 9.98, repro,
2004-10-15,5.40, -3.10, -7.41, 2.74, 2.07, 9.96, repro,
2004-10-16,6.12, -1.20, 8.01, 2.67, 2.08, 9.89, repro,
2004-10-17,7.23, -3.72, 17.21, 3.49, 2.90, 14.14, repro,
2004-10-18,6.23, -3.51, 14.37, 2.64, 2.02, 9.55, repro,
2004-10-19,7.53, -4.80, -1.32, 2.83, 2.17, 10.32, repro,
2004-10-20,6.37, -2.94, 7.94, 2.73, 2.10, 9.86, repro,
2004-10-21,4.20, -1.02, 7.44, 2.66, 2.05, 9.76, repro,
2004-10-22,5.64, -0.62, 27.00, 2.73, 2.12, 10.14, repro,
2004-10-23,4.70, -1.91, 13.84, 2.67, 2.12, 10.02, repro,
2004-10-24,7.18, -3.58, 3.26, 2.71, 2.15, 10.14, repro,
2004-10-25,7.24, -3.85, 1.01, 2.61, 2.07, 9.75, repro,
2004-10-26,4.62, -1.81, 11.65, 2.83, 2.17, 10.43, repro,
2004-10-27,5.06, -1.91, 7.24, 2.78, 2.15, 10.36, repro,
2004-10-28,8.14, -2.34, 10.60, 2.64, 2.05, 9.77, repro,
2004-10-29,6.02, -1.36, 11.16, 2.60, 2.07, 9.78, repro,
2004-10-30,5.93, -3.40, -4.93, 2.78, 2.20, 10.30, repro,
2004-10-31,7.73, -2.79, -0.28, 2.67, 2.05, 9.71, repro,
2004-11-01,6.03, -1.60, -6.46, 2.66, 2.10, 9.85, repro,
2004-11-02,7.51, -0.75, 2.78, 2.60, 2.10, 9.81, repro,
2004-11-03,7.43, -1.17, 5.89, 2.76, 2.19, 10.40, repro,
2004-11-04,3.55, -2.62, -2.76, 2.74, 2.12, 10.03, repro,
2004-11-05,7.42, -4.70, -9.94, 2.87, 2.31, 10.89, repro,
2004-11-06,6.07, -3.93, -14.06, 2.66, 2.10, 10.04, repro,
2004-11-07,7.01, -2.01, 4.37, 2.61, 2.07, 9.73, repro,
2004-11-08,7.09, 0.42, 13.57, 3.31, 2.47, 11.94, repro,
2004-11-09,5.48, -0.99, 4.02, 2.66, 2.07, 9.80, repro,
2004-11-10,9.05, -1.07, -8.68, 2.86, 2.09, 10.28, repro,
2004-11-11,8.73, -1.78, -5.51, 2.67, 2.09, 9.78, repro,
2004-11-12,10.34, -2.56, -2.58, 2.73, 2.07, 9.87, repro,
2004-11-13,8.01, -1.87, -0.02, 2.63, 2.05, 9.56, repro,
2004-11-14,7.78, -6.03, -13.60, 3.21, 2.52, 12.43, repro,
2004-11-15,8.98, -1.61, 1.18, 2.80, 2.13, 9.94, repro,
2004-11-16,8.66, -2.28, -2.04, 2.58, 2.05, 9.62, repro,
2004-11-17,7.92, -1.12, -1.58, 2.66, 2.07, 9.74, repro,
2004-11-18,9.23, -0.89, 5.57, 2.82, 2.19, 10.45, repro,
2004-11-19,10.23, -2.35, -2.15, 2.62, 2.08, 9.74, repro,
2004-11-20,9.95, -2.13, -1.15, 2.65, 2.05, 9.52, repro,
2004-11-21,7.95, -2.18, -11.71, 2.59, 2.08, 9.76, repro,
2004-11-22,11.98, -5.30, -13.80, 2.55, 2.01, 9.45, repro,
2004-11-23,10.42, -2.49, 4.13, 2.77, 2.11, 10.05, repro,
2004-11-24,8.99, -3.31, -0.40, 3.38, 2.78, 13.18, repro,
2004-11-25,8.26, -3.86, 7.20, 2.78, 2.27, 10.57, repro,
2004-11-26,8.90, -1.78, 4.75, 2.69, 2.13, 10.17, repro,
2004-11-27,9.16, -4.42, -7.00, 2.60, 2.12, 9.94, repro,
2004-11-28,5.86, -3.64, -9.69, 2.59, 2.03, 9.52, repro,
2004-11-29,9.29, -5.28, -14.70, 2.55, 1.96, 9.33, repro,
2004-11-30,11.35, -2.82, -8.71, 3.06, 2.68, 12.31, repro,
2004-12-01,10.60, -3.58, -9.52, 2.77, 2.09, 9.97, repro,
2004-12-02,9.78, -3.30, -1.96, 2.61, 1.97, 9.39, repro,
2004-12-03,7.41, -3.74, 5.73, 2.56, 2.02, 9.44, repro,
2004-12-04,9.62, -4.67, -2.76, 2.52, 2.01, 9.42, repro,
2004-12-05,10.15, -3.38, 11.94, 2.58, 2.03, 9.61, repro,
2004-12-06,11.76, -5.32, 0.78, 2.71, 2.07, 9.71, repro,
2004-12-07,9.49, -3.61, 8.46, 2.79, 2.17, 10.19, repro,
2004-12-08,10.45, -6.15, 1.03, 2.54, 2.02, 9.35, repro,
2004-12-09,13.51, -4.18, -2.79, 2.57, 2.03, 9.50, repro,
2004-12-10,11.82, -1.80, 3.92, 2.74, 2.12, 10.03, repro,
2004-12-11,10.03, -4.79, -13.92, 2.94, 2.29, 10.88, repro,
2004-12-12,11.36, -4.39, -16.12, 2.61, 1.99, 9.37, repro,
2004-12-13,11.06, -3.40, -4.70, 2.64, 2.03, 9.52, repro,
2004-12-14,9.00, -4.13, -5.94, 2.67, 2.10, 9.81, repro,
2004-12-15,10.33, -3.01, -9.53, 2.87, 2.21, 10.10, repro,
2004-12-16,10.16, -3.65, -13.69, 2.62, 1.97, 9.30, repro,
2004-12-17,10.45, -3.47, -15.85, 2.52, 1.94, 9.16, repro,
2004-12-18,9.20, -2.16, -8.88, 2.60, 2.01, 9.41, repro,
2004-12-19,11.56, -6.14, -23.88, 2.55, 2.01, 9.45, repro,
2004-12-20,11.69, -5.05, -10.23, 2.55, 1.97, 9.23, repro,
2004-12-21,10.29, -2.01, 8.04, 2.73, 2.06, 9.75, repro,
2004-12-22,11.04, -4.03, -8.53, 2.59, 2.01, 9.44, repro,
2004-12-23,10.85, -3.00, -6.55, 2.52, 1.97, 9.18, repro,
2004-12-24,9.52, -4.42, -11.30, 2.69, 2.14, 9.89, repro,
2004-12-25,10.21, -5.56, -8.68, 2.67, 2.07, 9.78, repro,
2004-12-26,9.93, -1.75, 10.84, 2.69, 2.03, 9.60, repro,
2004-12-27,9.98, -4.00, -13.98, 2.64, 1.98, 9.39, repro,
2004-12-28,10.86, -5.67, -6.18, 2.65, 1.98, 9.23, repro,
2004-12-29,12.83, -3.47, 5.82, 2.64, 2.04, 9.63, repro,
2004-12-30,14.16, -4.53, 0.27, 2.77, 2.16, 10.12, repro,
2004-12-31,10.50, -5.84, -2.70, 2.75, 2.04, 9.61, repro,
2005-01-01,12.20, -3.53, -2.72, 2.75, 2.06, 9.62, repro,
2005-01-02,13.11, -4.06, -5.11, 2.66, 1.96, 9.25, repro,
2005-01-03,11.87, -2.58, -1.27, 2.67, 1.99, 9.24, repro,
2005-01-04,13.55, -3.15, -5.83, 2.64, 1.96, 8.94, repro,
2005-01-05,9.95, -2.06, -12.68, 2.59, 1.94, 8.99, repro,
2005-01-06,12.84, -3.57, -7.59, 2.76, 2.06, 9.64, repro,
2005-01-07,13.22, -1.45, 8.92, 2.78, 2.06, 9.74, repro,
2005-01-08,9.66, -2.41, 1.84, 2.67, 2.05, 9.68, repro,
2005-01-09,11.38, -2.03, -0.39, 2.55, 1.94, 9.00, repro,
2005-01-10,10.27, -4.17, -16.92, 3.03, 2.31, 10.53, repro,
2005-01-11,13.16, -5.63, -14.80, 2.70, 2.12, 9.49, repro,
2005-01-12,14.92, -1.11, -8.82, 2.70, 2.03, 9.54, repro,
2005-01-13,10.73, -3.08, -9.22, 2.61, 2.00, 9.27, repro,
2005-01-14,12.18, -5.14, -26.31, 2.63, 2.03, 9.38, repro,
2005-01-15,10.43, -3.82, -23.91, 2.71, 2.10, 9.51, repro,
2005-01-16,14.02, -4.35, -30.66, 2.70, 2.13, 9.74, repro,
2005-01-17,13.73, 0.12, -5.39, 2.73, 2.12, 9.72, repro,
2005-01-18,11.35, -1.38, -11.63, 3.18, 2.30, 10.65, repro,
2005-01-19,14.45, -3.31, -17.40, 2.90, 2.19, 10.25, repro,
2005-01-20,10.18, -1.02, -7.67, 3.08, 2.54, 11.96, repro,
2005-01-21,12.19, -2.06, -6.01, 2.59, 2.07, 9.74, repro,
2005-01-22,12.60, -1.63, 1.18, 2.67, 2.03, 9.39, repro,
2005-01-23,13.62, -4.00, -6.63, 2.59, 2.00, 9.30, repro,
2005-01-24,10.46, -2.71, -6.19, 2.59, 2.00, 9.36, repro,
2005-01-25,13.28, -3.63, -12.25, 2.68, 2.14, 9.98, repro,
2005-01-26,14.62, -3.82, -9.14, 2.57, 2.00, 9.31, repro,
2005-01-27,13.86, -5.25, -6.83, 2.58, 2.00, 9.32, repro,
2005-01-28,12.08, -4.15, -10.10, 2.62, 2.09, 9.58, repro,
2005-01-29,13.43, -2.93, -1.93, 2.62, 2.00, 9.38, repro,
2005-01-30,15.64, -4.56, -11.41, 2.51, 1.97, 9.14, repro,
2005-01-31,12.12, -3.57, -13.62, 2.50, 1.96, 9.09, repro,
2005-02-01,13.14, -4.02, -16.11, 2.48, 1.93, 9.03, repro,
2005-02-02,13.64, -5.08, -11.07, 2.49, 1.92, 8.91, repro,
2005-02-03,87.60, -171.90, -623.71, 15.03, 41.19, 91.10, repro,
2005-02-04,12.64, -3.74, -11.66, 2.54, 2.01, 9.37, repro,
2005-02-05,13.08, -6.06, -2.04, 2.47, 1.95, 9.00, repro,
2005-02-06,14.94, -3.21, -4.53, 2.51, 1.99, 9.35, repro,
2005-02-07,13.85, -5.66, -13.32, 2.55, 2.00, 9.32, repro,
2005-02-08,13.89, -3.61, -16.00, 2.59, 1.98, 9.24, repro,
2005-02-09,14.77, -3.40, -7.27, 2.64, 1.99, 9.30, repro,
2005-02-10,10.86, -5.47, -18.12, 2.46, 1.90, 8.78, repro,
2005-02-11,12.94, -5.31, -13.33, 2.55, 1.96, 9.15, repro,
2005-02-12,12.24, -5.33, -5.81, 2.64, 2.00, 9.34, repro,
2005-02-13,14.64, -5.10, -5.36, 2.61, 2.02, 9.37, repro,
2005-02-14,14.44, -3.80, 1.94, 2.66, 2.03, 9.53, repro,
2005-02-15,11.75, -5.18, -12.04, 3.06, 2.20, 10.27, repro,
2005-02-16,13.50, -4.96, -17.53, 2.50, 1.96, 9.09, repro,
2005-02-17,13.53, -4.18, -13.40, 2.69, 2.02, 9.46, repro,
2005-02-18,12.07, -3.73, -11.67, 2.64, 1.97, 9.34, repro,
2005-02-19,13.39, -4.71, -3.45, 2.51, 1.91, 8.95, repro,
2005-02-20,11.63, -4.39, -2.54, 2.97, 2.51, 11.33, repro,
2005-02-21,10.50, -4.80, -12.96, 2.60, 1.94, 9.22, repro,
2005-02-22,11.37, -2.85, -5.20, 2.63, 1.99, 9.31, repro,
2005-02-23,12.33, -5.26, -6.61, 2.75, 2.06, 9.78, repro,
2005-02-24,12.96, -4.23, -14.91, 2.65, 1.93, 9.14, repro,
2005-02-25,12.69, -3.52, -8.21, 2.63, 1.95, 9.16, repro,
2005-02-26,10.56, -3.99, -10.44, 2.63, 1.99, 9.34, repro,
2005-02-27,10.79, -5.76, -10.90, 2.64, 1.97, 9.34, repro,
2005-02-28,9.37, -3.84, -3.62, 2.69, 2.04, 9.73, repro,
2005-03-01,12.04, -4.43, -15.44, 2.56, 2.00, 9.35, repro,
2005-03-02,10.88, -4.04, -12.14, 2.64, 1.97, 9.26, repro,
2005-03-03,11.54, -3.09, -16.37, 2.60, 1.99, 9.27, repro,
2005-03-04,7.21, -4.26, -21.39, 2.71, 2.02, 9.40, repro,
2005-03-05,9.59, -4.24, -16.54, 2.69, 2.02, 9.42, repro,
2005-03-06,11.28, -3.04, -10.00, 2.57, 1.94, 9.15, repro,
2005-03-07,13.30, -5.46, -17.82, 2.64, 2.06, 9.58, repro,
2005-03-08,13.61, -2.31, -12.72, 3.15, 2.53, 11.72, repro,
2005-03-09,10.57, -3.41, -16.74, 2.76, 2.06, 9.51, repro,
2005-03-10,9.74, -2.82, -17.35, 2.67, 2.03, 9.54, repro,
2005-03-11,9.87, -3.29, -11.60, 2.60, 1.99, 9.40, repro,
2005-03-12,11.31, -2.42, -10.56, 2.55, 1.91, 8.81, repro,
2005-03-13,9.64, -5.34, -27.90, 2.60, 2.00, 9.21, repro,
2005-03-14,8.90, -3.24, -11.75, 2.70, 2.06, 9.51, repro,
2005-03-15,5.40, -4.01, -13.25, 2.73, 2.05, 9.57, repro,
2005-03-16,6.23, -5.62, -11.63, 3.13, 2.58, 11.90, repro,
2005-03-17,10.06, -1.95, 7.01, 2.62, 1.99, 9.35, repro,
2005-03-18,7.93, -2.96, -8.17, 2.66, 2.01, 9.32, repro,
2005-03-19,10.44, -4.22, -3.43, 2.75, 2.10, 9.79, repro,
2005-03-20,10.13, -4.50, -6.68, 2.71, 2.11, 9.78, repro,
2005-03-21,9.57, -4.14, -4.03, 3.29, 2.31, 11.03, repro,
2005-03-22,10.50, -4.05, -17.74, 3.14, 2.19, 10.30, repro,
2005-03-23,7.60, -2.95, -7.02, 2.53, 1.94, 9.02, repro,
2005-03-24,6.13, -3.37, -8.03, 3.13, 2.23, 10.46, repro,
2005-03-25,6.30, -2.29, -11.87, 3.25, 2.61, 12.35, repro,
2005-03-26,2.42, -2.83, 4.14, 3.14, 2.40, 11.44, repro,
2005-03-27,6.00, -0.15, 14.62, 2.77, 2.15, 10.29, repro,
2005-03-28,5.37, -2.91, 2.48, 2.78, 2.05, 9.67, repro,
2005-03-29,7.14, -1.16, 8.48, 2.80, 2.13, 10.13, repro,
2005-03-30,9.66, -4.51, 2.57, 2.69, 2.09, 9.91, repro,
2005-03-31,6.65, -4.80, -10.77, 2.65, 2.03, 9.57, repro,
2005-04-01,9.49, -3.88, -3.32, 2.73, 2.11, 10.06, repro,
2005-04-02,5.94, -2.34, -7.29, 2.75, 2.10, 10.05, repro,
2005-04-03,6.47, -2.30, 3.89, 2.82, 2.18, 10.66, repro,
2005-04-04,7.61, -2.57, 7.12, 2.85, 2.14, 10.36, repro,
2005-04-05,5.03, -2.62, -11.89, 2.77, 2.09, 10.02, repro,
2005-04-06,6.29, -1.02, -3.27, 2.64, 1.97, 9.34, repro,
2005-04-07,7.63, -2.88, -1.53, 2.79, 2.08, 9.85, repro,
2005-04-08,5.71, -1.82, 8.10, 2.67, 2.03, 9.63, repro,
2005-04-09,5.16, -3.66, 3.19, 2.71, 2.00, 9.48, repro,
2005-04-10,6.16, -2.44, -5.85, 2.87, 2.21, 10.57, repro,
2005-04-11,6.22, -3.54, 2.97, 2.71, 2.09, 9.88, repro,
2005-04-12,5.48, -1.67, -0.48, 2.73, 2.03, 9.52, repro,
2005-04-13,7.64, -3.14, -10.15, 2.65, 1.95, 9.23, repro,
2005-04-14,5.24, -3.45, -4.37, 2.89, 2.11, 10.12, repro,
2005-04-15,3.83, -1.26, -12.38, 2.82, 2.11, 9.84, repro,
2005-04-16,5.17, -1.75, -4.30, 2.69, 2.05, 9.65, repro,
2005-04-17,2.72, -2.45, -2.85, 2.70, 1.98, 9.36, repro,
2005-04-18,3.04, -1.95, -5.25, 3.06, 2.21, 10.03, repro,
2005-04-19,5.44, -4.12, -15.44, 2.70, 1.94, 9.18, repro,
2005-04-20,3.04, -5.21, -18.19, 2.71, 1.96, 9.39, repro,
2005-04-21,1.90, -1.93, -5.93, 2.68, 2.04, 9.46, repro,
2005-04-22,2.85, -2.66, -23.73, 2.74, 2.06, 9.54, repro,
2005-04-23,1.15, -2.12, -8.92, 2.62, 1.94, 8.94, repro,
2005-04-24,5.03, 0.56, 5.49, 2.75, 2.06, 9.76, repro,
2005-04-25,2.87, -3.15, -10.57, 2.66, 1.97, 9.22, repro,
2005-04-26,1.52, -1.71, -3.46, 2.72, 2.03, 9.61, repro,
2005-04-27,1.87, -1.42, -12.59, 2.71, 2.04, 9.54, repro,
2005-04-28,-1.13, -1.90, -14.24, 2.74, 2.06, 9.39, repro,
2005-04-29,-0.48, -2.18, -4.24, 2.67, 1.96, 9.17, repro,
2005-04-30,5.22, -1.68, -11.09, 2.67, 2.00, 9.44, repro,
2005-05-08,2.52, -2.69, -10.33, 2.68, 2.00, 9.37, repro,
2005-05-09,0.68, -0.78, 2.47, 2.67, 2.02, 9.52, repro,
2005-05-10,2.87, -2.76, -11.19, 2.70, 2.09, 9.71, repro,
2005-05-11,2.72, -2.68, -12.21, 2.80, 2.07, 9.75, repro,
2005-05-12,2.80, -1.72, -12.32, 2.67, 2.04, 9.59, repro,
2005-05-13,3.66, -3.99, -25.25, 2.77, 2.07, 9.84, repro,
2005-05-14,2.08, -1.50, -7.67, 2.67, 2.05, 9.51, repro,
2005-05-15,5.87, -1.97, -1.51, 3.09, 2.31, 11.26, repro,
2005-05-16,0.98, -1.95, 9.50, 2.73, 2.15, 10.04, repro,
2005-05-17,1.41, -3.54, -1.74, 3.27, 2.59, 11.71, repro,
2005-05-18,3.90, 0.04, 1.80, 2.71, 2.03, 9.51, repro,
2005-05-19,4.12, 0.23, 7.55, 2.69, 2.13, 9.99, repro,
2005-05-20,-0.92, -1.46, 7.00, 2.72, 2.13, 9.94, repro,
2005-05-21,0.38, -4.27, -15.63, 2.70, 2.06, 9.54, repro,
2005-05-22,1.16, -2.90, -8.06, 2.70, 2.08, 9.81, repro,
2005-05-23,1.05, -0.76, -8.43, 2.66, 2.04, 9.56, repro,
2005-05-24,1.04, -1.19, -19.65, 2.61, 2.02, 9.40, repro,
2005-05-25,1.04, 0.13, -22.29, 2.89, 2.35, 11.02, repro,
2005-05-26,-2.13, -2.98, -17.20, 2.79, 2.19, 9.99, repro,
2005-05-27,-1.42, 0.59, -4.92, 2.72, 2.16, 10.25, repro,
2005-05-28,-3.69, -0.59, -6.94, 2.65, 2.09, 9.72, repro,
2005-05-29,-5.27, 0.72, -5.79, 2.77, 2.29, 10.19, repro,
2005-05-30,-3.16, -1.11, -9.84, 2.63, 2.16, 10.23, repro,
2005-05-31,-2.24, -0.95, -2.71, 2.71, 2.15, 10.20, repro,
2005-06-01,1.03, -2.48, -1.16, 2.80, 2.21, 10.42, repro,
2005-06-02,-0.28, -3.78, -8.70, 2.66, 2.07, 9.70, repro,
2005-06-03,1.11, -0.57, -6.19, 2.64, 2.09, 9.63, repro,
2005-06-04,0.41, -0.21, -3.87, 2.70, 2.06, 9.71, repro,
2005-06-05,1.28, -2.17, -9.09, 2.67, 2.09, 9.68, repro,
2005-06-06,0.15, -1.45, -7.62, 2.68, 2.03, 9.56, repro,
2005-06-07,-0.50, -0.80, -3.14, 2.74, 2.11, 9.96, repro,
2005-06-08,1.33, -0.96, -5.51, 2.64, 2.01, 9.46, repro,
2005-06-09,1.18, -1.20, -17.90, 3.11, 2.46, 11.36, repro,
2005-06-10,-2.20, 1.39, 5.86, 2.63, 2.05, 9.61, repro,
2005-06-11,0.06, -1.39, -2.00, 2.65, 2.09, 9.70, repro,
2005-06-12,-0.83, -4.49, -14.08, 3.14, 2.51, 11.50, repro,
2005-06-13,2.69, -3.67, -22.62, 2.86, 2.16, 10.23, repro,
2005-06-14,-0.11, 0.97, 0.72, 2.75, 2.10, 9.90, repro,
2005-06-15,-0.63, 0.42, -8.14, 3.12, 2.51, 12.03, repro,
2005-06-16,-0.15, 0.44, -2.84, 2.76, 2.03, 9.66, repro,
2005-06-17,0.17, -1.21, -6.28, 2.78, 2.11, 10.02, repro,
2005-06-18,-2.63, -0.33, -11.39, 2.83, 2.15, 10.29, repro,
2005-06-19,-1.48, 0.56, -11.19, 2.71, 2.07, 9.73, repro,
2005-06-20,-0.97, 1.84, -7.70, 2.67, 2.02, 9.55, repro,
2005-06-21,-3.16, -0.30, -11.03, 2.64, 2.04, 9.43, repro,
2005-06-22,-1.38, -2.08, -9.49, 2.72, 2.21, 10.55, repro,
2005-06-23,0.03, 1.54, -11.68, 2.78, 2.14, 10.11, repro,
2005-06-24,-3.14, -0.66, -12.58, 2.86, 2.18, 10.69, repro,
2005-06-25,-3.03, 0.13, -14.80, 2.75, 2.14, 10.08, repro,
2005-06-26,2.69, 0.31, -6.90, 2.86, 2.16, 10.14, repro,
2005-06-27,1.10, -0.23, -2.84, 2.82, 2.23, 10.63, repro,
2005-06-28,-1.22, -1.17, -3.34, 3.30, 2.60, 11.60, repro,
2005-06-29,0.74, -0.20, -7.08, 2.72, 2.09, 9.97, repro,
2005-06-30,-0.52, 0.40, -10.28, 2.72, 2.10, 9.95, repro,
2005-07-01,-3.42, 1.08, 1.44, 2.65, 2.07, 9.73, repro,
2005-07-02,-0.28, -0.93, -8.08, 2.65, 2.10, 9.78, repro,
2005-07-03,-1.93, 0.57, -8.56, 2.64, 2.03, 9.48, repro,
2005-07-04,-0.62, -0.58, -8.42, 2.62, 2.03, 9.62, repro,
2005-07-05,-7.90, -0.07, -6.20, 2.68, 2.08, 9.83, repro,
2005-07-06,-3.39, -0.08, 2.31, 2.72, 2.12, 10.02, repro,
2005-07-07,-0.75, 0.55, -9.80, 2.61, 2.04, 9.46, repro,
2005-07-08,-3.34, 0.46, 5.73, 2.76, 2.19, 10.30, repro,
2005-07-09,-3.05, -0.65, -10.54, 2.63, 2.06, 9.65, repro,
2005-07-10,-3.33, 1.71, 0.89, 2.72, 2.08, 9.83, repro,
2005-07-11,0.03, 0.78, -5.04, 2.79, 2.12, 10.20, repro,
2005-07-12,-0.43, 1.65, -5.28, 2.64, 2.06, 9.64, repro,
2005-07-13,-0.66, 1.76, -2.00, 2.73, 2.09, 9.80, repro,
2005-07-14,-1.17, -1.04, -10.45, 2.72, 2.04, 9.61, repro,
2005-07-15,-2.52, 0.39, 5.84, 2.63, 1.99, 9.40, repro,
2005-07-16,-2.80, 2.46, -2.90, 2.73, 2.10, 9.97, repro,
2005-07-17,-2.46, 2.12, -1.32, 2.72, 2.07, 9.75, repro,
2005-07-18,0.41, 2.70, 1.55, 2.68, 2.02, 9.52, repro,
2005-07-19,0.23, 0.36, -8.74, 2.73, 2.14, 10.20, repro,
2005-07-20,-2.35, 1.14, -8.28, 2.65, 2.05, 9.70, repro,
2005-07-21,-5.06, 1.80, -11.06, 2.61, 2.01, 9.47, repro,
2005-07-22,-4.39, -0.00, -5.49, 2.70, 2.10, 9.83, repro,
2005-07-23,-3.84, 0.92, -4.96, 2.66, 2.08, 9.70, repro,
2005-07-24,-3.32, 1.05, -14.11, 2.71, 2.17, 10.31, repro,
2005-07-25,-2.33, 0.51, -6.27, 2.74, 2.18, 10.18, repro,
2005-07-26,-5.74, -1.90, -17.95, 3.16, 2.59, 11.97, repro,
2005-07-27,-9.70, 2.33, -9.00, 2.83, 2.26, 10.47, repro,
2005-07-28,-4.40, 2.55, 1.56, 2.87, 2.27, 10.78, repro,
2005-07-29,-3.82, 2.97, -2.61, 2.73, 2.09, 9.91, repro,
2005-07-30,-4.83, 1.75, -12.60, 2.63, 2.04, 9.70, repro,
2005-07-31,-6.85, 1.16, -8.86, 2.72, 2.13, 10.19, repro,
2005-08-01,-8.81, 0.10, -6.67, 2.67, 2.06, 9.80, repro,
2005-08-02,-7.10, 3.77, 1.41, 2.65, 2.08, 9.91, repro,
2005-08-03,-6.87, 2.24, -3.97, 2.69, 2.09, 9.95, repro,
2005-08-04,-4.56, 2.81, -5.54, 2.67, 2.07, 9.72, repro,
2005-08-05,-6.14, 2.09, -14.75, 2.69, 2.11, 10.04, repro,
2005-08-06,-5.31, 0.91, -10.22, 2.68, 1.99, 9.51, repro,
2005-08-07,-5.89, 3.35, -10.52, 2.76, 2.06, 9.89, repro,
2005-08-08,-5.27, 4.41, 4.44, 2.71, 2.06, 9.83, repro,
2005-08-09,-5.21, 1.58, -10.76, 2.75, 2.09, 9.90, repro,
2005-08-10,-5.31, -0.03, -10.60, 2.71, 2.04, 9.63, repro,
2005-08-11,-4.00, 0.89, -9.76, 2.76, 2.11, 10.04, repro,
2005-08-12,-2.93, 1.10, -2.19, 2.68, 2.03, 9.51, repro,
2005-08-13,-5.22, 1.23, -2.41, 2.85, 2.08, 9.99, repro,
2005-08-14,-4.51, 2.36, -2.63, 2.76, 2.07, 9.64, repro,
2005-08-15,-5.20, 1.82, 3.80, 2.67, 2.08, 9.75, repro,
2005-08-16,-3.82, 1.11, -9.71, 2.66, 2.09, 9.61, repro,
2005-08-17,-5.45, 0.69, -0.62, 2.62, 2.01, 9.38, repro,
2005-08-18,-2.94, 1.28, 0.46, 2.67, 2.07, 9.75, repro,
2005-08-19,-4.06, 1.58, -1.40, 3.11, 2.34, 10.86, repro,
2005-08-20,-3.32, -0.29, -3.92, 2.61, 1.97, 9.33, repro,
2005-08-21,-3.19, 0.28, -6.80, 2.61, 2.02, 9.36, repro,
2005-08-22,-2.57, -2.93, -13.05, 2.62, 2.03, 9.43, repro,
2005-08-23,-5.58, 2.46, 7.30, 2.61, 2.03, 9.47, repro,
2005-08-24,-3.41, 1.10, -5.88, 2.64, 2.01, 9.58, repro,
2005-08-25,-2.60, 0.01, -8.03, 2.67, 2.01, 9.53, repro,
2005-08-26,-3.22, -0.43, -5.41, 2.61, 1.99, 9.46, repro,
2005-08-27,-4.61, -1.33, -10.28, 2.64, 2.01, 9.48, repro,
2005-08-28,-1.06, 0.73, -0.19, 2.64, 2.05, 9.60, repro,
2005-08-29,-2.93, 1.31, 3.12, 2.70, 2.08, 9.81, repro,
2005-08-30,-3.18, -0.51, -2.88, 2.68, 2.05, 9.63, repro,
2005-08-31,-2.23, 1.52, 3.22, 2.65, 2.01, 9.50, repro,
2005-09-01,-1.58, 0.24, -6.68, 2.61, 1.99, 9.21, repro,
2005-09-02,-1.02, -1.02, -4.10, 2.65, 2.04, 9.47, repro,
2005-09-03,-2.83, 0.53, -10.86, 2.66, 1.98, 9.25, repro,
2005-09-04,-2.14, 0.26, -2.80, 2.65, 1.99, 9.32, repro,
2005-09-05,-1.93, -0.02, 1.78, 2.83, 2.16, 10.17, repro,
2005-09-06,-0.99, -0.23, -7.89, 2.74, 2.12, 9.91, repro,
2005-09-07,-2.86, -0.31, -11.97, 2.65, 1.99, 9.28, repro,
2005-09-08,-3.92, 0.90, -2.61, 2.75, 2.02, 9.43, repro,
2005-09-09,-4.44, -2.24, 7.96, 2.76, 2.03, 9.49, repro,
2005-09-10,0.55, -1.26, 6.98, 3.07, 2.24, 10.56, repro,
2005-09-11,-2.03, -2.01, -0.97, 2.92, 2.09, 9.83, repro,
2005-09-12,-0.35, -2.08, -5.67, 2.82, 2.10, 9.73, repro,
2005-09-13,-3.20, -0.90, 2.47, 2.75, 2.10, 9.74, repro,
2005-09-14,-2.32, -3.50, -6.19, 2.67, 2.05, 9.66, repro,
2005-09-15,-1.08, -2.57, -2.58, 2.72, 2.10, 9.96, repro,
2005-09-16,-1.36, -1.49, 1.18, 2.77, 2.07, 9.80, repro,
2005-09-17,-0.51, -3.59, -10.84, 2.62, 1.98, 9.34, repro,
2005-09-18,-0.96, -2.36, 2.53, 2.76, 2.03, 9.55, repro,
2005-09-19,-1.36, -1.03, -0.52, 3.12, 2.27, 10.75, repro,
2005-09-20,0.41, -1.74, -6.03, 2.69, 1.99, 9.47, repro,
2005-09-21,-1.20, -2.77, -3.99, 2.64, 2.00, 9.49, repro,
2005-09-22,-0.54, -1.54, -3.01, 2.79, 2.17, 10.03, repro,
2005-09-23,-1.59, -2.05, -7.94, 2.63, 1.99, 9.43, repro,
2005-09-24,-2.11, -1.17, -4.94, 3.05, 2.27, 11.05, repro,
2005-09-25,-1.58, -1.44, 1.99, 2.68, 2.06, 9.74, repro,
2005-09-26,0.73, -3.04, -3.41, 2.85, 2.16, 10.09, repro,
2005-09-27,0.63, -0.47, -0.05, 2.79, 2.04, 9.68, repro,
2005-09-28,-3.67, -1.16, 6.50, 2.70, 2.01, 9.48, repro,
2005-09-29,-2.16, -1.08, 15.51, 2.61, 2.03, 9.53, repro,
2005-09-30,0.21, -2.11, 11.30, 2.65, 2.11, 9.99, repro,
2005-10-01,0.15, -3.35, 7.13, 2.71, 2.16, 10.21, repro,
2005-10-02,1.66, -4.40, 5.51, 3.21, 2.58, 11.90, repro,
2005-10-03,2.40, -2.01, 7.34, 2.75, 2.11, 9.75, repro,
2005-10-04,0.18, -1.16, 2.49, 2.71, 2.06, 9.68, repro,
2005-10-05,2.10, -3.13, -8.16, 3.19, 2.75, 12.48, repro,
2005-10-06,2.80, -2.84, -7.41, 2.70, 2.07, 9.58, repro,
2005-10-07,4.61, -0.67, 9.69, 2.92, 2.18, 10.67, repro,
2005-10-08,1.11, -3.47, 5.98, 2.70, 2.08, 9.81, repro,
2005-10-09,1.41, -1.92, 3.67, 2.57, 1.97, 9.10, repro,
2005-10-10,-0.53, -2.52, 3.26, 2.64, 2.08, 9.53, repro,
2005-10-11,3.57, -2.91, 0.44, 2.83, 2.23, 10.40, repro,
2005-10-12,1.53, -1.82, -7.16, 2.73, 2.12, 9.89, repro,
2005-10-13,5.59, -4.18, -4.04, 3.07, 2.60, 12.31, repro,
2005-10-14,5.18, -2.28, 7.51, 2.68, 2.06, 9.63, repro,
2005-10-15,4.26, -0.58, 19.38, 2.71, 2.12, 9.99, repro,
2005-10-16,1.40, -2.20, 5.45, 3.24, 2.61, 12.00, repro,
2005-10-17,4.00, -0.82, 12.16, 2.83, 2.23, 10.50, repro,
2005-10-18,5.19, -2.96, 1.43, 2.67, 2.06, 9.60, repro,
2005-10-19,5.54, -1.63, 7.46, 2.86, 2.18, 10.52, repro,
2005-10-20,5.66, -2.50, -2.33, 3.08, 2.46, 11.36, repro,
2005-10-21,3.03, 2.35, 11.97, 2.67, 2.05, 9.78, repro,
2005-10-22,7.80, -1.34, 4.06, 2.70, 2.05, 9.72, repro,